Location: Boisemont
(49.2876°N, 1.4999°E)
Time: 01:20:23
(UTC+00:00)

Daily predictions for brighter satellites

Satellite Brightness Start Highest point End
(mag) Time Altitude Azimuth Time Altitude Azimuth Time Altitude Azimuth
CZ-4C R/B 3.9 03:38:51 33° NNE 03:39:11 33° NNE 03:46:08 10° E
ATLAS 3B R/B 3.6 03:41:57 44° NNE 03:41:57 44° NNE 03:47:00 10° NE
H-2A R/B 4.1 03:45:55 10° NE 03:49:48 23° E 03:53:42 10° SE
SL-16 R/B 4.4 04:04:09 15° NNE 04:04:09 15° NNE 04:05:07 10° NNE
COSMOS 2428 3.6 04:04:27 45° ESE 04:04:47 46° ESE 04:10:14 10° NE
Cosmos 2333 Rocket 3.7 04:08:53 27° NNE 04:08:53 27° NNE 04:11:29 10° NNE
ARIANE 5 R/B 4.2 04:01:35 10° NNE 04:06:16 32° E 04:10:56 10° SSE
CENTAUR R/B 3.7 04:04:39 41° N 04:07:03 51° NE 04:15:45 10° ESE
BREEZE M DEB (TANK) 3.8 04:09:07 74° S 04:09:07 74° S 04:24:24 10° ESE
Cosmos 2278 Rocket 2.9 04:11:18 49° NE 04:11:26 49° NE 04:16:54 10° SE
Cosmos 2221 4.4 04:14:15 27° ESE 04:14:15 27° ESE 04:16:50 10° SE
Cosmos 2237 Rocket 4.2 04:15:39 10° SSE 04:20:11 25° ESE 04:24:43 10° NE
Cosmos 1331 Rocket 4.5 04:23:11 57° ESE 04:23:11 57° ESE 04:27:36 10° SE
Cosmos 1048 Rocket 4.4 04:24:55 57° E 04:24:55 57° E 04:29:42 10° NNE
Cosmos 1092 Rocket 4.2 04:22:08 21° N 04:26:30 67° ENE 04:32:43 10° SSE
Lacrosse 5 rocket 2.8 04:35:42 36° NE 04:35:42 36° NE 04:38:21 10° NE
Cosmos 2322 3.6 04:34:58 78° NNE 04:34:58 78° NNE 04:40:17 10° NNE
SKYMED 2 4.3 04:32:23 10° SE 04:36:29 50° ENE 04:36:29 50° ENE
Cosmos 1428 Rocket 4.3 04:38:34 53° NNW 04:40:09 85° W 04:46:16 10° S
USA 267 3.7 04:34:07 10° E 04:40:22 48° N 04:41:48 42° NNW
Cosmos 1943 Rocket 2.9 04:46:58 29° N 04:49:25 48° NE 04:54:45 10° SE
Cosmos 2219 Rocket 2.8 04:52:17 42° NNW 04:52:17 42° NNW 04:56:32 10° NNE
Cosmos 2360 Rocket 3.7 04:53:37 23° N 04:53:37 23° N 04:56:17 10° NNE
IRS-P3 Rocket 4.4 04:47:22 10° NNE 04:52:38 83° WNW 04:54:09 47° SSW
Cosmos 1953 Rocket 4.2 04:48:34 10° S 04:52:56 57° E 04:57:21 10° NNE
Meteor 2-3 Rocket 3.5 04:52:55 31° SSW 04:55:40 76° WNW 05:01:18 10° N
SL-19 R/B 4.2 04:53:38 10° NNE 04:59:05 76° ESE 05:04:18 10° SSW
Cosmos 2285 Rocket 4.5 04:53:57 10° S 05:00:11 62° ESE 05:06:30 10° NNE
USA 281 3.6 04:53:50 10° NNE 05:00:23 65° ESE 05:06:53 10° SSW
USA 229 DEB 3.5 04:59:43 53° W 05:01:06 66° NW 05:08:01 10° NE
USA 229 3.5 04:59:44 52° W 05:01:09 66° NW 05:08:04 10° NE
Cosmos 1110 Rocket 4.0 05:03:19 58° WSW 05:03:19 58° WSW 05:08:16 10° S
Cosmos 1627 Rocket 4.4 05:00:05 11° NNW 05:06:18 70° W 05:12:35 10° S
NOSS 3-1 (C) 4.5 05:06:01 27° NNW 05:06:21 27° NNW 05:12:01 10° NE
IRS-1C 4.0 05:02:03 10° NNE 05:07:25 78° WNW 05:12:43 10° SSW
Cosmos 494 Rocket 4.2 05:08:37 49° NNW 05:08:37 49° NNW 05:12:59 10° NNE
NOSS 3-1 (A) 4.0 05:10:44 34° NNW 05:11:00 34° NNW 05:16:56 10° NE
SJ-12 4.4 05:08:07 10° NNE 05:12:07 58° E 05:16:05 10° S
JB-3 4.4 05:08:41 10° SSE 05:12:43 79° ENE 05:13:53 45° N
ATLAS 5 CENTAUR R/B 3.8 05:12:35 10° SSE 05:15:01 18° ESE 05:17:36 10° ENE
Cosmos 2322 Rocket 3.9 05:16:57 17° NNW 05:16:57 17° NNW 05:19:26 10° N
CZ-2D R/B 3.1 05:16:06 10° NNE 05:20:01 82° WNW 05:23:58 10° SSW
Cosmos 1500 3.7 05:17:36 10° S 05:21:04 54° E 05:24:32 10° NNE
CZ-3 R/B 4.3 05:09:37 14° WSW 05:21:45 25° SSW 05:28:29 10° SSE
ERS-1 4.3 05:17:06 10° N 05:22:02 69° WNW 05:26:58 10° SSW
Cosmos 1302 Rocket 3.9 05:19:22 29° NNW 05:22:06 88° WSW 05:27:20 10° SSE
Cosmos 1437 Rocket 2.7 05:20:47 10° S 05:24:27 75° E 05:28:07 10° NNE
COSMO-SKYMED 1 2.6 05:20:23 10° S 05:24:39 55° W 05:25:06 52° WNW
CZ-4C R/B 3.0 05:23:59 24° NW 05:28:39 79° NE 05:37:12 10° SE
H-2A R/B 2.0 05:24:42 10° N 05:29:30 53° WNW 05:34:21 10° SW
Cosmos 2369 Rocket 3.8 05:24:42 10° NNW 05:29:40 30° NE 05:34:39 10° ESE
ATLAS 3B R/B 3.7 05:29:12 26° NW 05:31:34 31° NNW 05:38:17 10° NE
ARGOS 3.3 05:26:12 10° NNE 05:31:37 78° ESE 05:36:59 10° S
Cosmos 1842 Rocket 3.4 05:31:56 19° NNW 05:35:04 76° W 05:39:31 10° S
BREEZE-M DEB (TANK) 2.7 05:35:17 43° W 05:36:25 78° SSW 05:44:47 10° ESE
Cosmos 1992 Rocket 4.3 05:32:12 14° NNW 05:36:43 65° ENE 05:41:53 10° SE
NOSS 0 Rocket 3.8 05:30:42 10° SW 05:36:56 73° WNW 05:43:13 10° NNE
Cosmos 1602 4.5 05:33:49 10° S 05:37:21 50° E 05:40:57 10° NNE
IRS-P3 4.2 05:33:32 10° N 05:38:43 54° WNW 05:43:53 10° SW
Cosmos 1980 3.6 05:33:42 10° SSW 05:39:22 84° WNW 05:45:06 10° NNE
CZ-2D R/B 3.9 05:36:36 10° NNE 05:40:13 54° E 05:43:48 10° S
Meteor 2-6 Rocket 4.2 05:38:43 10° NNW 05:44:26 66° W 05:49:57 10° S
NOSS 3-2 (C) 4.3 05:39:17 18° NW 05:44:56 66° NE 05:53:25 10° SE
Cosmos 1076 Rocket 3.4 05:40:41 10° SSW 05:45:00 76° WNW 05:49:22 10° N
ARIANE 5 R/B 2.9 05:40:31 10° N 05:45:24 42° WNW 05:50:18 10° SW
Geosat 4.1 05:40:22 10° NNE 05:45:25 79° ESE 05:50:27 10° SSW
IKONOS-2 4.5 05:41:38 10° SSE 05:45:48 84° ENE 05:50:01 10° NNW
SL-16 R/B 4.2 05:46:01 11° NNW 05:46:01 11° NNW 05:47:43 10° N
DELTA 2 DEB (DPAF) 4.2 05:44:09 10° SSE 05:48:26 75° ENE 05:52:43 10° NNW
COSMOS 2428 3.2 05:46:32 25° W 05:49:10 37° NW 05:54:29 10° NNE
FengYun 1-2 T 4.2 05:44:37 10° N 05:50:11 67° WNW 05:55:40 10° SSW
Cosmos 2221 3.5 05:51:00 25° WSW 05:51:00 25° WSW 05:53:52 10° SSW
Cosmos 2333 Rocket 3.7 05:50:54 19° NW 05:51:06 19° NW 05:55:04 10° N
CZ-2C R/B 3.6 05:49:05 10° NNE 05:52:47 52° E 05:56:31 10° S
GENESIS II 4.0 05:50:03 15° SW 05:53:14 74° NW 05:57:07 10° NE
Cosmos 2278 Rocket 2.9 05:53:11 25° WNW 05:55:19 32° WSW 06:00:16 10° SSW
CENTAUR R/B 3.3 05:51:49 18° NW 05:58:16 65° SW 06:07:17 10° SSE
Cosmos 2266 Rocket 3.9 05:54:18 10° N 06:00:25 88° W 06:06:35 10° S
Helios 1B rocket 2.3 05:58:44 10° NNE 06:02:44 86° ESE 06:06:43 10° SSW
Cosmos 2237 Rocket 2.2 05:58:13 10° SW 06:03:49 61° WNW 06:09:26 10° NNE
SeaSat 1 3.6 05:59:16 10° ESE 06:03:51 40° NE 06:08:27 10° NNW
Cosmos 1378 3.6 06:03:21 27° WNW 06:04:21 33° W 06:07:30 10° SSW
NOSS 3-2 (A) 4.1 06:00:41 16° NW 06:06:48 69° SW 06:15:25 10° SSE
SL-08 R/B 4.1 06:03:46 10° SSW 06:07:50 29° W 06:10:33 17° NW
Intercosmos 25 Rocket 3.6 06:07:12 10° SSW 06:10:54 82° W 06:16:40 10° N
Lacrosse 5 rocket 2.3 06:10:48 21° WNW 06:13:01 34° NNW 06:17:03 10° NE
CZ-3B R/B 4.3 06:08:37 18° WNW 06:13:15 69° SW 06:37:32 10° SE
Meteor 2-12 Rocket 4.4 06:10:04 10° NNW 06:16:08 67° W 06:22:12 10° S
Spot 4 Rocket 4.2 06:11:13 10° N 06:16:13 51° WNW 06:21:10 10° SW
Cosmos 2151 3.7 06:12:41 10° SW 06:16:26 30° WNW 06:20:13 10° N
Cosmos 1461 2.9 06:17:16 10° SW 06:21:44 75° NW 06:26:05 10° NE
Cosmos 2297 3.8 06:16:02 10° NNW 06:21:44 83° ENE 06:27:22 10° SSE
USA 267 3.3 06:16:28 10° ESE 06:23:00 80° NNE 06:29:08 12° NW
Cosmos 1151 Rocket 3.1 06:19:03 10° N 06:23:24 80° E 06:27:44 10° SSE
Cosmos 1666 3.1 06:22:16 10° SW 06:25:30 33° WNW 06:28:44 10° N
PSLV R/B 4.0 06:22:21 10° N 06:26:19 37° WNW 06:30:15 10° SW
Meteor 1-31 Rocket 2.7 06:28:20 10° NNE 06:32:08 87° E 06:35:57 10° SSW
Meteor 1-25 Rocket 4.5 06:27:07 10° S 06:32:55 80° E 06:38:43 10° NNE
Cosmos 1943 Rocket 2.9 06:28:31 12° NW 06:32:58 32° WSW 06:37:45 10° SSW
USA 238 DEB 4.1 06:27:45 10° NW 06:35:02 79° NE 06:42:52 10° SE
USA 238 4.1 06:27:49 10° NW 06:35:06 78° NE 06:42:54 10° SE
ERS-2 2.4 06:33:41 10° N 06:36:16 28° WNW 06:38:50 10° SW
Cosmos 2219 Rocket 3.9 06:34:02 12° WNW 06:36:22 15° NNW 06:39:29 10° N
Cosmos 2360 Rocket 4.2 06:36:30 10° NNW 06:37:20 10° NNW 06:38:09 10° NNW
Elektron 3 4.4 06:35:30 14° WNW 06:37:59 56° SW 06:42:24 10° SSE
Cosmos 1269 Rocket 4.0 06:35:23 10° SSW 06:40:39 73° WNW 06:45:57 10° NNE
USA 281 3.8 06:38:46 10° NNE 06:44:33 34° NW 06:50:20 10° WSW
Meteor 1-27 Rocket 3.9 06:41:18 10° NNW 06:46:40 52° W 06:51:58 10° S
SMAP 3.1 06:43:07 10° N 06:47:45 64° WNW 06:52:20 10° SSW
Okean 1 3.4 06:44:58 10° NNW 06:48:43 50° W 06:52:24 10° S
AQUARIUS 4.1 06:47:25 10° N 06:51:53 71° WNW 06:56:19 10° SSW
Meteor 1-20 Rocket 4.2 06:46:33 10° SSW 06:51:57 63° WNW 06:57:24 10° N
Meteor 2-4 Rocket 4.1 06:47:17 10° N 06:53:05 76° ENE 06:58:58 10° SSE
CZ-4C R/B 3.6 06:51:36 10° S 06:55:43 56° W 06:59:54 10° NNW
Cosmos 1328 Rocket 3.7 06:51:50 10° N 06:56:17 82° E 07:00:43 10° SSE
Cosmos 2084 Rocket 4.2 06:53:44 10° SSW 06:57:50 57° SE 07:01:47 10° NE
ATLAS 5 CENTAUR R/B 1.3 06:55:16 10° WSW 06:58:38 47° NW 07:02:29 10° NE
NOSS 2-1 (E) 3.4 06:56:24 10° SSW 06:59:36 59° SE 07:02:37 10° NE
CORIOLIS 4.2 06:54:39 10° N 07:00:01 62° WNW 07:05:23 10° SSW
SL-16 R/B 2.2 06:57:14 10° SW 07:02:53 65° WNW 07:08:34 10° NNE
